This is the latest recevied weather packets stored in our database for station/object DC1MPP-9. If no packets are shown the sender has not sent any weather packets the latest 10 day(s).
| Time | Temp. | Humidity | Pressure | Rain* | Wind** | Luminosity | Snow |
|---|---|---|---|---|---|---|---|
| 1777927246 | 17.78° C | 69% | 955 hPa | - | - | - | - |
| 1777927005 | 17.78° C | 66% | 955 hPa | - | - | - | - |
| 1777926523 | 18.33° C | 63% | 955 hPa | - | - | - | - |
| 1777926282 | 17.78° C | 62% | 955 hPa | - | - | - | - |
| 1777926041 | 17.78° C | 60% | 955 hPa | - | - | - | - |
| 1777925800 | 17.78° C | 59% | 955 hPa | - | - | - | - |
| 1777925559 | 17.78° C | 61% | 955 hPa | - | - | - | - |
| 1777925318 | 17.78° C | 66% | 955 hPa | - | - | - | - |
| 1777925077 | 17.78° C | 68% | 954 hPa | - | - | - | - |
| 1777924836 | 17.78° C | 68% | 954 hPa | - | - | - | - |
| 1777924594 | 17.78° C | 65% | 954 hPa | - | - | - | - |
| 1777924353 | 18.33° C | 65% | 954 hPa | - | - | - | - |
| 1777924112 | 18.33° C | 64% | 954 hPa | - | - | - | - |
| 1777923871 | 18.33° C | 64% | 954 hPa | - | - | - | - |
| 1777923630 | 18.33° C | 62% | 954 hPa | - | - | - | - |
| 1777923389 | 18.89° C | 62% | 954 hPa | - | - | - | - |
| 1777923148 | 18.89° C | 63% | 954 hPa | - | - | - | - |
| 1777922907 | 18.89° C | 61% | 954 hPa | - | - | - | - |
| 1777922666 | 19.44° C | 61% | 954 hPa | - | - | - | - |
| 1777922425 | 19.44° C | 60% | 954 hPa | - | - | - | - |
| 1777922184 | 19.44° C | 58% | 954 hPa | - | - | - | - |
| 1777921943 | 19.44° C | 58% | 954 hPa | - | - | - | - |
| 1777921702 | 20° C | 57% | 954 hPa | - | - | - | - |
| 1777921461 | 20° C | 55% | 954 hPa | - | - | - | - |
| 1777921220 | 20° C | 54% | 954 hPa | - | - | - | - |
* Rain since midnight (hover to see other rain measurements)
** Current wind speed in m/s (hover to see current wind gust speed)